Regional Weather Roundup
Issued by NWS Goodland, KS

Home | Current Version | Previous Version | Graphics & Text | Print | Product List | Glossary On
Versions: 1 2 3 4 5 6 7 8 9 10 11 12 13 14 15 16 17 18 19 20 21 22 23 24 25 26 27 28 29 30 31 32 33 34 35 36 37 38 39 40 41 42 43 44 45 46 47 48 49 50
000
ASUS43 KGLD 291008
RWRGLD

GOODLAND FORECAST AREA HOURLY WEATHER ROUNDUP
NATIONAL WEATHER SERVICE GOODLAND KS
300 AM MST MON DEC 29 2014

...OFFICIAL OBSERVATIONS...

CITY           SKY/WX    TMP DP  RH WIND       PRES   REMARKS
GOODLAND KS    FOG       16  15  96 N9        30.04R VSB 1/4
HILL CITY KS   PTCLDY    14  11  87 SE3       30.09S
IMPERIAL NEB   CLOUDY    15  10  80 E8        30.07S
MCCOOK NEB     PTCLDY    11   8  88 N8        30.11R
AKRON CO       CLOUDY    16  12  84 W6        30.00R
BURLINGTON CO  CLOUDY    16  12  84 NW10      30.01R WCI   4
LIMON CO       CLEAR      8   2  76 NW3       29.97R
$$

...UNOFFICIAL OBSERVATIONS...

CITY           SKY/WX    TMP DP  RH WIND       PRES   REMARKS
COLBY KS       CLOUDY    18  18 100 N8        30.06F FOG
SHARON SPRINGS   N/A     16  14  91 N5          N/A
TRIBUNE KS     CLEAR     18  18 100 W5        30.02R
KIT CARSON CO    N/A     15  12  88 MISG        N/A
YUMA CO          N/A      7   2  79 NW5         N/A
$$


USA.gov is the U.S. government's official web portal to all federal, state and local government web resources and services.